This is the latest recevied weather packets stored in our database for station/object KF0EZB. If no packets are shown the sender has not sent any weather packets the latest 10 day(s).
| Time | Temp. | Humidity | Pressure | Rain* | Wind** | Luminosity | Snow |
|---|---|---|---|---|---|---|---|
| 1777849083 | 30° C | 17% | 1007 hPa | 0 mm | - | 369 W/m² | - |
| 1777848778 | 29.44° C | 17% | 1007.1 hPa | 0 mm | - | 378 W/m² | - |
| 1777848475 | 28.89° C | 18% | 1007.2 hPa | 0 mm | - | 227 W/m² | - |
| 1777848173 | 28.89° C | 18% | 1007.2 hPa | 0 mm | - | 201 W/m² | - |
| 1777847870 | 28.89° C | 17% | 1006.9 hPa | 0 mm | - | 200 W/m² | - |
| 1777847568 | 29.44° C | 17% | 1007.1 hPa | 0 mm | - | 255 W/m² | - |
| 1777847264 | 29.44° C | 17% | 1007.1 hPa | 0 mm | - | 255 W/m² | - |
| 1777846962 | 30° C | 17% | 1007.3 hPa | 0 mm | - | 239 W/m² | - |
| 1777846660 | 30° C | 17% | 1007.4 hPa | 0 mm | - | 298 W/m² | - |
| 1777846357 | 30.56° C | 16% | 1007.6 hPa | 0 mm | - | 300 W/m² | - |
| 1777846054 | 31.11° C | 16% | 1007.5 hPa | 0 mm | - | 501 W/m² | - |
| 1777845751 | 30.56° C | 15% | 1007.4 hPa | 0 mm | - | 480 W/m² | - |
| 1777845447 | 30.56° C | 16% | 1007.6 hPa | 0 mm | - | 366 W/m² | - |
| 1777845145 | 30.56° C | 15% | 1007.6 hPa | 0 mm | - | 489 W/m² | - |
| 1777844843 | 31.11° C | 14% | 1007.9 hPa | 0 mm | - | 527 W/m² | - |
| 1777844539 | 31.11° C | 14% | 1007.6 hPa | 0 mm | - | 425 W/m² | - |
| 1777844237 | 31.11° C | 16% | 1007.8 hPa | 0 mm | - | 551 W/m² | - |
| 1777843934 | 31.11° C | 15% | 1007.9 hPa | 0 mm | - | 382 W/m² | - |
| 1777843631 | 30.56° C | 15% | 1008 hPa | 0 mm | - | 601 W/m² | - |
| 1777843329 | 30.56° C | 15% | 1008 hPa | 0 mm | - | 406 W/m² | - |
| 1777843026 | 30.56° C | 16% | 1008.2 hPa | 0 mm | - | 502 W/m² | - |
| 1777842722 | 30.56° C | 15% | 1008.1 hPa | 0 mm | - | 521 W/m² | - |
| 1777842418 | 30.56° C | 15% | 1008.2 hPa | 0 mm | - | 604 W/m² | - |
| 1777842115 | 31.11° C | 15% | 1008.5 hPa | 0 mm | - | 582 W/m² | - |
| 1777841810 | 30.56° C | 14% | 1008.7 hPa | 0 mm | - | 661 W/m² | - |
* Rain latest hour (hover to see other rain measurements)
** Current wind speed in m/s (hover to see current wind gust speed)